Year,Month,Day,Hour,Minute,Value (Times are PST for temperature in C)
2015,04,28,00,00,13.10
2015,04,28,00,01,13.10
2015,04,28,00,02,13.10
2015,04,28,00,03,13.10
2015,04,28,00,04,13.10
2015,04,28,00,05,13.10
2015,04,28,00,06,13.10
2015,04,28,00,07,13.10
2015,04,28,00,08,13.10
2015,04,28,00,09,13.10
2015,04,28,00,10,13.20
2015,04,28,00,11,13.20
2015,04,28,00,12,13.20
2015,04,28,00,13,13.20
2015,04,28,00,14,13.10
2015,04,28,00,15,13.10
2015,04,28,00,16,13.10
2015,04,28,00,17,13.10
2015,04,28,00,18,13.20
2015,04,28,00,19,13.10
2015,04,28,00,20,13.20
2015,04,28,00,21,13.20
2015,04,28,00,22,13.20
2015,04,28,00,23,13.30
2015,04,28,00,24,13.30
2015,04,28,00,25,13.30
2015,04,28,00,26,13.30
2015,04,28,00,27,13.30
2015,04,28,00,28,13.30
2015,04,28,00,29,13.30
2015,04,28,00,30,13.30
2015,04,28,00,31,13.30
2015,04,28,00,32,13.30
2015,04,28,00,33,13.30
2015,04,28,00,34,13.30
2015,04,28,00,35,13.40
2015,04,28,00,36,13.50
2015,04,28,00,37,13.50
2015,04,28,00,38,13.50
2015,04,28,00,39,13.60
2015,04,28,00,40,13.60
2015,04,28,00,41,13.60
2015,04,28,00,42,13.70
2015,04,28,00,43,13.70
2015,04,28,00,44,13.70
2015,04,28,00,45,13.70
2015,04,28,00,46,13.70
2015,04,28,00,47,13.70
2015,04,28,00,48,13.70
2015,04,28,00,49,13.70
2015,04,28,00,50,13.70
2015,04,28,00,51,13.70
2015,04,28,00,52,13.70
2015,04,28,00,53,13.70
2015,04,28,00,54,13.70
2015,04,28,00,55,13.70
2015,04,28,00,56,13.70
2015,04,28,00,57,13.60
2015,04,28,00,58,13.60
2015,04,28,00,59,13.50
2015,04,28,01,00,13.50
2015,04,28,01,01,13.40
2015,04,28,01,02,13.40
2015,04,28,01,03,13.40
2015,04,28,01,04,13.30
2015,04,28,01,05,13.30
2015,04,28,01,06,13.30
2015,04,28,01,07,13.30
2015,04,28,01,08,13.20
2015,04,28,01,09,13.10
2015,04,28,01,10,13.00
2015,04,28,01,11,13.00
2015,04,28,01,12,13.00
2015,04,28,01,13,12.90
2015,04,28,01,14,12.90
2015,04,28,01,15,12.90
2015,04,28,01,16,12.90
2015,04,28,01,17,13.00
2015,04,28,01,18,13.00
2015,04,28,01,19,13.00
2015,04,28,01,20,13.00
2015,04,28,01,21,13.00
2015,04,28,01,22,13.00
2015,04,28,01,23,13.00
2015,04,28,01,24,13.10
2015,04,28,01,25,13.10
2015,04,28,01,26,13.10
2015,04,28,01,27,13.20
2015,04,28,01,28,13.20
2015,04,28,01,29,13.20
2015,04,28,01,30,13.20
2015,04,28,01,31,13.30
2015,04,28,01,32,13.30
2015,04,28,01,33,13.30
2015,04,28,01,34,13.30
2015,04,28,01,35,13.30
2015,04,28,01,36,13.30
2015,04,28,01,37,13.30
2015,04,28,01,38,13.30
2015,04,28,01,39,13.40
2015,04,28,01,40,13.50
2015,04,28,01,41,13.60
2015,04,28,01,42,13.60
2015,04,28,01,43,13.60
2015,04,28,01,44,13.70
2015,04,28,01,45,13.70
2015,04,28,01,46,13.60
2015,04,28,01,47,13.60
2015,04,28,01,48,13.70
2015,04,28,01,49,13.70
2015,04,28,01,50,13.80
2015,04,28,01,51,13.90
2015,04,28,01,52,14.00
2015,04,28,01,53,14.10
2015,04,28,01,54,14.10
2015,04,28,01,55,14.20
2015,04,28,01,56,14.20
2015,04,28,01,57,14.20
2015,04,28,01,58,14.30
2015,04,28,01,59,14.40
2015,04,28,02,00,14.40
2015,04,28,02,01,14.50
2015,04,28,02,02,14.50
2015,04,28,02,03,14.50
2015,04,28,02,04,14.50
2015,04,28,02,05,14.50
2015,04,28,02,06,14.50
2015,04,28,02,07,14.60
2015,04,28,02,08,14.70
2015,04,28,02,09,14.70
2015,04,28,02,10,14.80
2015,04,28,02,11,14.80
2015,04,28,02,12,14.80
2015,04,28,02,13,14.80
2015,04,28,02,14,14.80
2015,04,28,02,15,14.80
2015,04,28,02,16,14.80
2015,04,28,02,17,14.80
2015,04,28,02,18,14.80
2015,04,28,02,19,14.90
2015,04,28,02,20,14.90
2015,04,28,02,21,14.90
2015,04,28,02,22,14.90
2015,04,28,02,23,14.90
2015,04,28,02,24,14.90
2015,04,28,02,25,14.90
2015,04,28,02,26,15.00
2015,04,28,02,27,15.00
2015,04,28,02,28,15.00
2015,04,28,02,29,15.00
2015,04,28,02,30,15.00
2015,04,28,02,31,15.00
2015,04,28,02,32,15.00
2015,04,28,02,33,15.00
2015,04,28,02,34,15.00
2015,04,28,02,35,15.10
2015,04,28,02,36,15.10
2015,04,28,02,37,15.10
2015,04,28,02,38,15.10
2015,04,28,02,39,15.10
2015,04,28,02,40,15.10
2015,04,28,02,41,15.10
2015,04,28,02,42,15.10
2015,04,28,02,43,15.20
2015,04,28,02,44,15.20
2015,04,28,02,45,15.20
2015,04,28,02,46,15.20
2015,04,28,02,47,15.20
2015,04,28,02,48,15.20
2015,04,28,02,49,15.20
2015,04,28,02,50,15.20
2015,04,28,02,51,15.20
2015,04,28,02,52,15.30
2015,04,28,02,53,15.30
2015,04,28,02,54,15.30
2015,04,28,02,55,15.20
2015,04,28,02,56,15.20
2015,04,28,02,57,15.20
2015,04,28,02,58,15.20
2015,04,28,02,59,15.20
2015,04,28,03,00,15.20
2015,04,28,03,01,15.20
2015,04,28,03,02,15.10
2015,04,28,03,03,15.10
2015,04,28,03,04,15.10
2015,04,28,03,05,15.10
2015,04,28,03,06,15.00
2015,04,28,03,07,15.00
2015,04,28,03,08,15.00
2015,04,28,03,09,15.00
2015,04,28,03,10,14.90
2015,04,28,03,11,14.90
2015,04,28,03,12,14.90
2015,04,28,03,13,14.80
2015,04,28,03,14,14.80
2015,04,28,03,15,14.80
2015,04,28,03,16,14.80
2015,04,28,03,17,14.80
2015,04,28,03,18,14.80
2015,04,28,03,19,14.80
2015,04,28,03,20,14.80
2015,04,28,03,21,14.80
2015,04,28,03,22,14.80
2015,04,28,03,23,14.80
2015,04,28,03,24,14.80
2015,04,28,03,25,14.80
2015,04,28,03,26,14.80
2015,04,28,03,27,14.80
2015,04,28,03,28,14.80
2015,04,28,03,29,14.80
2015,04,28,03,30,14.80
2015,04,28,03,31,14.80
2015,04,28,03,32,14.80
2015,04,28,03,33,14.80
2015,04,28,03,34,14.80
2015,04,28,03,35,14.70
2015,04,28,03,36,14.80
2015,04,28,03,37,14.80
2015,04,28,03,38,14.80
2015,04,28,03,39,14.80
2015,04,28,03,40,14.80
2015,04,28,03,41,14.80
2015,04,28,03,42,14.80
2015,04,28,03,43,14.80
2015,04,28,03,44,14.80
2015,04,28,03,45,14.80
2015,04,28,03,46,14.80
2015,04,28,03,47,14.80
2015,04,28,03,48,14.80
2015,04,28,03,49,14.80
2015,04,28,03,50,14.80
2015,04,28,03,51,14.80
2015,04,28,03,52,14.80
2015,04,28,03,53,14.80
2015,04,28,03,54,14.80
2015,04,28,03,55,14.80
2015,04,28,03,56,14.80
2015,04,28,03,57,14.80
2015,04,28,03,58,14.80
2015,04,28,03,59,14.80
2015,04,28,04,00,14.80
2015,04,28,04,01,14.80
2015,04,28,04,02,14.80
2015,04,28,04,03,14.80
2015,04,28,04,04,14.80
2015,04,28,04,05,14.80
2015,04,28,04,06,14.80
2015,04,28,04,07,14.90
2015,04,28,04,08,14.90
2015,04,28,04,09,14.90
2015,04,28,04,10,14.80
2015,04,28,04,11,14.80
2015,04,28,04,12,14.80
2015,04,28,04,13,14.80
2015,04,28,04,14,14.80
2015,04,28,04,15,14.80
2015,04,28,04,16,14.80
2015,04,28,04,17,14.80
2015,04,28,04,18,14.70
2015,04,28,04,19,14.80
2015,04,28,04,20,14.80
2015,04,28,04,21,14.70
2015,04,28,04,22,14.70
2015,04,28,04,23,14.70
2015,04,28,04,24,14.70
2015,04,28,04,25,14.70
2015,04,28,04,26,14.60
2015,04,28,04,27,14.60
2015,04,28,04,28,14.60
2015,04,28,04,29,14.60
2015,04,28,04,30,14.60
2015,04,28,04,31,14.50
2015,04,28,04,32,14.50
2015,04,28,04,33,14.50
2015,04,28,04,34,14.40
2015,04,28,04,35,14.40
2015,04,28,04,36,14.40
2015,04,28,04,37,14.30
2015,04,28,04,38,14.30
2015,04,28,04,39,14.20
2015,04,28,04,40,14.20
2015,04,28,04,41,14.20
2015,04,28,04,42,14.20
2015,04,28,04,43,14.20
2015,04,28,04,44,14.20
2015,04,28,04,45,14.20
2015,04,28,04,46,14.20
2015,04,28,04,47,14.20
2015,04,28,04,48,14.20
2015,04,28,04,49,14.10
2015,04,28,04,50,14.10
2015,04,28,04,51,14.10
2015,04,28,04,52,14.10
2015,04,28,04,53,14.10
2015,04,28,04,54,14.10
2015,04,28,04,55,14.10
2015,04,28,04,56,14.10
2015,04,28,04,57,14.10
2015,04,28,04,58,14.10
2015,04,28,04,59,14.10
2015,04,28,05,00,14.10
2015,04,28,05,01,14.10
2015,04,28,05,02,14.10
2015,04,28,05,03,14.10
2015,04,28,05,04,14.10
2015,04,28,05,05,14.10
2015,04,28,05,06,14.10
2015,04,28,05,07,14.10
2015,04,28,05,08,14.10
2015,04,28,05,09,14.10
2015,04,28,05,10,14.10
2015,04,28,05,11,14.00
2015,04,28,05,12,14.00
2015,04,28,05,13,14.00
2015,04,28,05,14,14.00
2015,04,28,05,15,14.10
2015,04,28,05,16,14.10
2015,04,28,05,17,14.10
2015,04,28,05,18,14.10
2015,04,28,05,19,14.00
2015,04,28,05,20,14.00
2015,04,28,05,21,14.00
2015,04,28,05,22,14.00
2015,04,28,05,23,14.00
2015,04,28,05,24,14.00
2015,04,28,05,25,14.00
2015,04,28,05,26,13.90
2015,04,28,05,27,13.90
2015,04,28,05,28,13.90
2015,04,28,05,29,13.90
2015,04,28,05,30,13.90
2015,04,28,05,31,13.90
2015,04,28,05,32,13.90
2015,04,28,05,33,14.00
2015,04,28,05,34,14.00
2015,04,28,05,35,14.00
2015,04,28,05,36,13.90
2015,04,28,05,37,13.90
2015,04,28,05,38,13.90
2015,04,28,05,39,13.90
2015,04,28,05,40,13.90
2015,04,28,05,41,13.90
2015,04,28,05,42,13.90
2015,04,28,05,43,13.80
2015,04,28,05,44,13.80
2015,04,28,05,45,13.80
2015,04,28,05,46,13.80
2015,04,28,05,47,13.80
2015,04,28,05,48,13.80
2015,04,28,05,49,13.80
2015,04,28,05,50,13.80
2015,04,28,05,51,13.80
2015,04,28,05,52,13.80
2015,04,28,05,53,13.80
2015,04,28,05,54,13.80
2015,04,28,05,55,13.80
2015,04,28,05,56,13.80
2015,04,28,05,57,13.70
2015,04,28,05,58,13.70
2015,04,28,05,59,13.70
2015,04,28,06,00,13.70
2015,04,28,06,01,13.70
2015,04,28,06,02,13.70
2015,04,28,06,03,13.70
2015,04,28,06,04,13.70
2015,04,28,06,05,13.70
2015,04,28,06,06,13.70
2015,04,28,06,07,13.70
2015,04,28,06,08,13.70
2015,04,28,06,09,13.70
2015,04,28,06,10,13.70
2015,04,28,06,11,13.70
2015,04,28,06,12,13.70
2015,04,28,06,13,13.70
2015,04,28,06,14,13.70
2015,04,28,06,15,13.70
2015,04,28,06,16,13.70
2015,04,28,06,17,13.80
2015,04,28,06,18,13.80
2015,04,28,06,19,13.80
2015,04,28,06,20,13.80
2015,04,28,06,21,13.80
2015,04,28,06,22,13.80
2015,04,28,06,23,13.80
2015,04,28,06,24,13.80
2015,04,28,06,25,13.80
2015,04,28,06,26,13.80
2015,04,28,06,27,13.90
2015,04,28,06,28,13.90
2015,04,28,06,29,13.90
2015,04,28,06,30,13.90
2015,04,28,06,31,13.90
2015,04,28,06,32,14.00
2015,04,28,06,33,14.00
2015,04,28,06,34,14.00
2015,04,28,06,35,14.10
2015,04,28,06,36,14.10
2015,04,28,06,37,14.10
2015,04,28,06,38,14.10
2015,04,28,06,39,14.20
2015,04,28,06,40,14.20
2015,04,28,06,41,14.20
2015,04,28,06,42,14.20
2015,04,28,06,43,14.20
2015,04,28,06,44,14.20
2015,04,28,06,45,14.20
2015,04,28,06,46,14.20
2015,04,28,06,47,14.20
2015,04,28,06,48,14.10
2015,04,28,06,49,14.10
2015,04,28,06,50,14.00
2015,04,28,06,51,13.90
2015,04,28,06,52,13.90
2015,04,28,06,53,13.80
2015,04,28,06,54,13.70
2015,04,28,06,55,13.70
2015,04,28,06,56,13.50
2015,04,28,06,57,13.30
2015,04,28,06,58,13.10
2015,04,28,06,59,13.00
2015,04,28,07,00,12.90
2015,04,28,07,01,12.80
2015,04,28,07,02,12.70
2015,04,28,07,03,12.60
2015,04,28,07,04,12.50
2015,04,28,07,05,12.50
2015,04,28,07,06,12.40
2015,04,28,07,07,12.30
2015,04,28,07,08,12.20
2015,04,28,07,09,12.10
2015,04,28,07,10,12.10
2015,04,28,07,11,12.00
2015,04,28,07,12,12.00
2015,04,28,07,13,11.90
2015,04,28,07,14,11.90
2015,04,28,07,15,11.90
2015,04,28,07,16,11.80
2015,04,28,07,17,11.80
2015,04,28,07,18,11.70
2015,04,28,07,19,11.60
2015,04,28,07,20,11.60
2015,04,28,07,21,11.50
2015,04,28,07,22,11.40
2015,04,28,07,23,11.40
2015,04,28,07,24,11.30
2015,04,28,07,25,11.20
2015,04,28,07,26,11.20
2015,04,28,07,27,11.10
2015,04,28,07,28,11.10
2015,04,28,07,29,11.10
2015,04,28,07,30,11.10
2015,04,28,07,31,11.10
2015,04,28,07,32,11.10
2015,04,28,07,33,11.00
2015,04,28,07,34,10.90
2015,04,28,07,35,10.90
2015,04,28,07,36,10.90
2015,04,28,07,37,10.90
2015,04,28,07,38,10.90
2015,04,28,07,39,10.90
2015,04,28,07,40,10.90
2015,04,28,07,41,10.90
2015,04,28,07,42,10.90
2015,04,28,07,43,10.90
2015,04,28,07,44,10.90
2015,04,28,07,45,10.90
2015,04,28,07,46,10.90
2015,04,28,07,47,10.90
2015,04,28,07,48,10.90
2015,04,28,07,49,10.90
2015,04,28,07,50,10.90
2015,04,28,07,51,10.90
2015,04,28,07,52,10.90
2015,04,28,07,53,10.90
2015,04,28,07,54,10.90
2015,04,28,07,55,10.90
2015,04,28,07,56,10.90
2015,04,28,07,57,10.90
2015,04,28,07,58,10.90
2015,04,28,07,59,10.90
2015,04,28,08,00,10.90
2015,04,28,08,01,10.90
2015,04,28,08,02,10.90
2015,04,28,08,03,10.90
2015,04,28,08,04,10.90
2015,04,28,08,05,10.90
2015,04,28,08,06,10.90
2015,04,28,08,07,10.90
2015,04,28,08,08,10.90
2015,04,28,08,09,11.00
2015,04,28,08,10,11.00
2015,04,28,08,11,11.00
2015,04,28,08,12,11.10
2015,04,28,08,13,11.00
2015,04,28,08,14,10.90
2015,04,28,08,15,10.90
2015,04,28,08,16,10.90
2015,04,28,08,17,10.90
2015,04,28,08,18,10.90
2015,04,28,08,19,10.90
2015,04,28,08,20,10.90
2015,04,28,08,21,10.90
2015,04,28,08,22,10.90
2015,04,28,08,23,10.90
2015,04,28,08,24,10.90
2015,04,28,08,25,10.90
2015,04,28,08,26,10.90
2015,04,28,08,27,11.10
2015,04,28,08,28,11.10
2015,04,28,08,29,11.10
2015,04,28,08,30,11.10
2015,04,28,08,31,11.10
2015,04,28,08,32,11.10
2015,04,28,08,33,11.10
2015,04,28,08,34,11.10
2015,04,28,08,35,11.10
2015,04,28,08,36,11.10
2015,04,28,08,37,11.20
2015,04,28,08,38,11.20
2015,04,28,08,39,11.20
2015,04,28,08,40,11.20
2015,04,28,08,41,11.20
2015,04,28,08,42,11.20
2015,04,28,08,43,11.20
2015,04,28,08,44,11.20
2015,04,28,08,45,11.20
2015,04,28,08,46,11.20
2015,04,28,08,47,11.10
2015,04,28,08,48,11.10
2015,04,28,08,49,11.10
2015,04,28,08,50,11.20
2015,04,28,08,51,11.20
2015,04,28,08,52,11.20
2015,04,28,08,53,11.20
2015,04,28,08,54,11.30
2015,04,28,08,55,11.30
2015,04,28,08,56,11.30
2015,04,28,08,57,11.30
2015,04,28,08,58,11.30
2015,04,28,08,59,11.30
2015,04,28,09,00,11.20
2015,04,28,09,01,11.20
2015,04,28,09,02,11.20
2015,04,28,09,03,11.20
2015,04,28,09,04,11.20
2015,04,28,09,05,11.10
2015,04,28,09,06,11.10
2015,04,28,09,07,11.10
2015,04,28,09,08,11.10
2015,04,28,09,09,11.10
2015,04,28,09,10,11.00
2015,04,28,09,11,11.00
2015,04,28,09,12,11.10
2015,04,28,09,13,11.00
2015,04,28,09,14,10.90
2015,04,28,09,15,10.90
2015,04,28,09,16,10.90
2015,04,28,09,17,10.90
2015,04,28,09,18,10.90
2015,04,28,09,19,10.90
2015,04,28,09,20,10.90
2015,04,28,09,21,11.10
2015,04,28,09,22,11.10
2015,04,28,09,23,11.10
2015,04,28,09,24,11.10
2015,04,28,09,25,11.10
2015,04,28,09,26,11.10
2015,04,28,09,27,11.10
2015,04,28,09,28,11.10
2015,04,28,09,29,11.10
2015,04,28,09,30,11.10
2015,04,28,09,31,11.20
2015,04,28,09,32,11.20
2015,04,28,09,33,11.20
2015,04,28,09,34,11.30
2015,04,28,09,35,11.20
2015,04,28,09,36,11.30
2015,04,28,09,37,11.30
2015,04,28,09,38,11.30
2015,04,28,09,39,11.30
2015,04,28,09,40,11.30
2015,04,28,09,41,11.40
2015,04,28,09,42,11.40
2015,04,28,09,43,11.40
2015,04,28,09,44,11.40
2015,04,28,09,45,11.40
2015,04,28,09,46,11.40
2015,04,28,09,47,11.40
2015,04,28,09,48,11.40
2015,04,28,09,49,11.50
2015,04,28,09,50,11.40
2015,04,28,09,51,11.40
2015,04,28,09,52,11.40
2015,04,28,09,53,11.40
2015,04,28,09,54,11.40
2015,04,28,09,55,11.40
2015,04,28,09,56,11.40
2015,04,28,09,57,11.40
2015,04,28,09,58,11.40
2015,04,28,09,59,11.40
2015,04,28,10,00,11.30
2015,04,28,10,01,11.30
2015,04,28,10,02,11.30
2015,04,28,10,03,11.30
2015,04,28,10,04,11.20
2015,04,28,10,05,11.20
2015,04,28,10,06,11.10
2015,04,28,10,07,11.10
2015,04,28,10,08,11.10
2015,04,28,10,09,11.10
2015,04,28,10,10,11.10
2015,04,28,10,11,11.10
2015,04,28,10,12,11.10
2015,04,28,10,13,11.00
2015,04,28,10,14,10.90
2015,04,28,10,15,10.90
2015,04,28,10,16,10.90
2015,04,28,10,17,10.90
2015,04,28,10,18,10.90
2015,04,28,10,19,10.90
2015,04,28,10,20,10.90
2015,04,28,10,21,10.90
2015,04,28,10,22,10.90
2015,04,28,10,23,10.80
2015,04,28,10,24,10.80
2015,04,28,10,25,10.80
2015,04,28,10,26,10.80
2015,04,28,10,27,10.70
2015,04,28,10,28,10.70
2015,04,28,10,29,10.60
2015,04,28,10,30,10.60
2015,04,28,10,31,10.60
2015,04,28,10,32,10.60
2015,04,28,10,33,10.50
2015,04,28,10,34,10.40
2015,04,28,10,35,10.40
2015,04,28,10,36,10.40
2015,04,28,10,37,10.40
2015,04,28,10,38,10.30
2015,04,28,10,39,10.30
2015,04,28,10,40,10.30
2015,04,28,10,41,10.30
2015,04,28,10,42,10.30
2015,04,28,10,43,10.20
2015,04,28,10,44,10.20
2015,04,28,10,45,10.20
2015,04,28,10,46,10.20
2015,04,28,10,47,10.10
2015,04,28,10,48,10.10
2015,04,28,10,49,10.10
2015,04,28,10,50,10.10
2015,04,28,10,51,10.20
2015,04,28,10,52,10.10
2015,04,28,10,53,10.10
2015,04,28,10,54,10.20
2015,04,28,10,55,10.20
2015,04,28,10,56,10.20
2015,04,28,10,57,10.20
2015,04,28,10,58,10.20
2015,04,28,10,59,10.20
2015,04,28,11,00,10.20
2015,04,28,11,01,10.10
2015,04,28,11,02,10.10
2015,04,28,11,03,10.10
2015,04,28,11,04,10.20
2015,04,28,11,05,10.20
2015,04,28,11,06,10.20
2015,04,28,11,07,10.30
2015,04,28,11,08,10.20
2015,04,28,11,09,10.20
2015,04,28,11,10,10.20
2015,04,28,11,11,10.20
2015,04,28,11,12,10.20
2015,04,28,11,13,10.20
2015,04,28,11,14,10.20
2015,04,28,11,15,10.20
2015,04,28,11,16,10.20
2015,04,28,11,17,10.30
2015,04,28,11,18,10.30
2015,04,28,11,19,10.20
2015,04,28,11,20,10.30
2015,04,28,11,21,10.30
2015,04,28,11,22,10.30
2015,04,28,11,23,10.30
2015,04,28,11,24,10.40
2015,04,28,11,25,10.30
2015,04,28,11,26,10.40
2015,04,28,11,27,10.40
2015,04,28,11,28,10.40
2015,04,28,11,29,10.40
2015,04,28,11,30,10.40
2015,04,28,11,31,10.40
2015,04,28,11,32,10.40
2015,04,28,11,33,10.40
2015,04,28,11,34,10.40
2015,04,28,11,35,10.40
2015,04,28,11,36,10.40
2015,04,28,11,37,10.50
2015,04,28,11,38,10.60
2015,04,28,11,39,10.50
2015,04,28,11,40,10.40
2015,04,28,11,41,10.50
2015,04,28,11,42,10.60
2015,04,28,11,43,10.60
2015,04,28,11,44,10.60
2015,04,28,11,45,10.60
2015,04,28,11,46,10.60
2015,04,28,11,47,10.60
2015,04,28,11,48,10.60
2015,04,28,11,49,10.60
2015,04,28,11,50,10.60
2015,04,28,11,51,10.60
2015,04,28,11,52,10.60
2015,04,28,11,53,10.60
2015,04,28,11,54,10.60
2015,04,28,11,55,10.60
2015,04,28,11,56,10.60
2015,04,28,11,57,10.60
2015,04,28,11,58,10.60
2015,04,28,11,59,10.70
2015,04,28,12,00,10.70
2015,04,28,12,01,10.80
2015,04,28,12,02,10.70
2015,04,28,12,03,10.70
2015,04,28,12,04,10.70
2015,04,28,12,05,10.70
2015,04,28,12,06,10.80
2015,04,28,12,07,10.80
2015,04,28,12,08,10.90
2015,04,28,12,09,11.00
2015,04,28,12,10,11.10
2015,04,28,12,11,11.20
2015,04,28,12,12,11.20
2015,04,28,12,13,11.10
2015,04,28,12,14,11.20
2015,04,28,12,15,11.20
2015,04,28,12,16,11.30
2015,04,28,12,17,11.20
2015,04,28,12,18,11.20
2015,04,28,12,19,11.20
2015,04,28,12,20,11.10
2015,04,28,12,21,11.10
2015,04,28,12,22,11.10
2015,04,28,12,23,11.10
2015,04,28,12,24,11.20
2015,04,28,12,25,11.20
2015,04,28,12,26,11.10
2015,04,28,12,27,11.10
2015,04,28,12,28,11.10
2015,04,28,12,29,11.10
2015,04,28,12,30,11.10
2015,04,28,12,31,11.20
2015,04,28,12,32,11.20
2015,04,28,12,33,11.10
2015,04,28,12,34,11.10
2015,04,28,12,35,11.10
2015,04,28,12,36,11.10
2015,04,28,12,37,11.10
2015,04,28,12,38,11.10
2015,04,28,12,39,11.10
2015,04,28,12,40,11.20
2015,04,28,12,41,11.30
2015,04,28,12,42,11.30
2015,04,28,12,43,11.30
2015,04,28,12,44,11.30
2015,04,28,12,45,11.20
2015,04,28,12,46,11.20
2015,04,28,12,47,11.30
2015,04,28,12,48,11.30
2015,04,28,12,49,11.30
2015,04,28,12,50,11.40
2015,04,28,12,51,11.40
2015,04,28,12,52,11.40
2015,04,28,12,53,11.40
2015,04,28,12,54,11.40
2015,04,28,12,55,11.40
2015,04,28,12,56,11.40
2015,04,28,12,57,11.40
2015,04,28,12,58,11.40
2015,04,28,12,59,11.40
2015,04,28,13,00,11.40
2015,04,28,13,01,11.50
2015,04,28,13,02,11.60
2015,04,28,13,03,11.60
2015,04,28,13,04,11.60
2015,04,28,13,05,11.60
2015,04,28,13,06,11.70
2015,04,28,13,07,11.70
2015,04,28,13,08,11.80
2015,04,28,13,09,11.80
2015,04,28,13,10,11.70
2015,04,28,13,11,11.70
2015,04,28,13,12,11.70
2015,04,28,13,13,11.80
2015,04,28,13,14,11.90
2015,04,28,13,15,12.00
2015,04,28,13,16,12.00
2015,04,28,13,17,11.90
2015,04,28,13,18,11.80
2015,04,28,13,19,11.80
2015,04,28,13,20,11.70
2015,04,28,13,21,11.60
2015,04,28,13,22,11.50
2015,04,28,13,23,11.40
2015,04,28,13,24,11.40
2015,04,28,13,25,11.50
2015,04,28,13,26,11.60
2015,04,28,13,27,11.60
2015,04,28,13,28,11.70
2015,04,28,13,29,11.70
2015,04,28,13,30,11.80
2015,04,28,13,31,11.80
2015,04,28,13,32,11.80
2015,04,28,13,33,11.90
2015,04,28,13,34,11.90
2015,04,28,13,35,11.90
2015,04,28,13,36,12.00
2015,04,28,13,37,12.10
2015,04,28,13,38,12.10
2015,04,28,13,39,12.10
2015,04,28,13,40,12.00
2015,04,28,13,41,12.00
2015,04,28,13,42,12.00
2015,04,28,13,43,12.10
2015,04,28,13,44,12.10
2015,04,28,13,45,12.30
2015,04,28,13,46,12.40
2015,04,28,13,47,12.50
2015,04,28,13,48,12.50
2015,04,28,13,49,12.60
2015,04,28,13,50,12.60
2015,04,28,13,51,12.50
2015,04,28,13,52,12.40
2015,04,28,13,53,12.40
2015,04,28,13,54,12.30
2015,04,28,13,55,12.20
2015,04,28,13,56,12.20
2015,04,28,13,57,12.30
2015,04,28,13,58,12.20
2015,04,28,13,59,12.30
2015,04,28,14,00,12.30
2015,04,28,14,01,12.30
2015,04,28,14,02,12.30
2015,04,28,14,03,12.20
2015,04,28,14,04,12.20
2015,04,28,14,05,12.10
2015,04,28,14,06,12.00
2015,04,28,14,07,12.10
2015,04,28,14,08,12.10
2015,04,28,14,09,12.30
2015,04,28,14,10,12.30
2015,04,28,14,11,12.40
2015,04,28,14,12,12.40
2015,04,28,14,13,12.40
2015,04,28,14,14,12.40
2015,04,28,14,15,12.30
2015,04,28,14,16,12.30
2015,04,28,14,17,12.30
2015,04,28,14,18,12.30
2015,04,28,14,19,12.30
2015,04,28,14,20,12.30
2015,04,28,14,21,12.30
2015,04,28,14,22,12.30
2015,04,28,14,23,12.30
2015,04,28,14,24,12.40
2015,04,28,14,25,12.30
2015,04,28,14,26,12.30
2015,04,28,14,27,12.30
2015,04,28,14,28,12.30
2015,04,28,14,29,12.30
2015,04,28,14,30,12.40
2015,04,28,14,31,12.60
2015,04,28,14,32,12.80
2015,04,28,14,33,12.90
2015,04,28,14,34,13.00
2015,04,28,14,35,13.00
2015,04,28,14,36,12.90
2015,04,28,14,37,12.80
2015,04,28,14,38,12.80
2015,04,28,14,39,12.70
2015,04,28,14,40,12.80
2015,04,28,14,41,12.70
2015,04,28,14,42,12.80
2015,04,28,14,43,12.80
2015,04,28,14,44,12.80
2015,04,28,14,45,12.90
2015,04,28,14,46,13.00
2015,04,28,14,47,13.10
2015,04,28,14,48,13.20
2015,04,28,14,49,13.30
2015,04,28,14,50,13.30
2015,04,28,14,51,13.40
2015,04,28,14,52,13.40
2015,04,28,14,53,13.40
2015,04,28,14,54,13.50
2015,04,28,14,55,13.60
2015,04,28,14,56,13.60
2015,04,28,14,57,13.70
2015,04,28,14,58,13.70
2015,04,28,14,59,13.70
2015,04,28,15,00,13.70
2015,04,28,15,01,13.70
2015,04,28,15,02,13.70
2015,04,28,15,03,13.70
2015,04,28,15,04,13.70
2015,04,28,15,05,13.80
2015,04,28,15,06,13.80
2015,04,28,15,07,13.90
2015,04,28,15,08,14.00
2015,04,28,15,09,14.10
2015,04,28,15,10,14.10
2015,04,28,15,11,14.10
2015,04,28,15,12,14.10
2015,04,28,15,13,14.20
2015,04,28,15,14,14.20
2015,04,28,15,15,14.20
2015,04,28,15,16,14.30
2015,04,28,15,17,14.20
2015,04,28,15,18,14.10
2015,04,28,15,19,14.10
2015,04,28,15,20,14.00
2015,04,28,15,21,13.90
2015,04,28,15,22,13.90
2015,04,28,15,23,13.90
2015,04,28,15,24,14.00
2015,04,28,15,25,14.00
2015,04,28,15,26,14.00
2015,04,28,15,27,14.00
2015,04,28,15,28,14.00
2015,04,28,15,29,14.00
2015,04,28,15,30,14.00
2015,04,28,15,31,14.00
2015,04,28,15,32,14.10
2015,04,28,15,33,14.00
2015,04,28,15,34,14.00
2015,04,28,15,35,14.00
2015,04,28,15,36,14.10
2015,04,28,15,37,14.00
2015,04,28,15,38,14.10
2015,04,28,15,39,14.00
2015,04,28,15,40,14.00
2015,04,28,15,41,14.00
2015,04,28,15,42,14.20
2015,04,28,15,43,14.30
2015,04,28,15,44,14.40
2015,04,28,15,45,14.40
2015,04,28,15,46,14.40
2015,04,28,15,47,14.30
2015,04,28,15,48,14.30
2015,04,28,15,49,14.30
2015,04,28,15,50,14.20
2015,04,28,15,51,14.20
2015,04,28,15,52,14.30
2015,04,28,15,53,14.30
2015,04,28,15,54,14.20
2015,04,28,15,55,14.30
2015,04,28,15,56,14.20
2015,04,28,15,57,14.20
2015,04,28,15,58,14.20
2015,04,28,15,59,14.20
2015,04,28,16,00,14.30
2015,04,28,16,01,14.30
2015,04,28,16,02,14.30
2015,04,28,16,03,14.30
2015,04,28,16,04,14.30
2015,04,28,16,05,14.30
2015,04,28,16,06,14.20
2015,04,28,16,07,14.30
2015,04,28,16,08,14.30
2015,04,28,16,09,14.20
2015,04,28,16,10,14.20
2015,04,28,16,11,14.20
2015,04,28,16,12,14.20
2015,04,28,16,13,14.30
2015,04,28,16,14,14.30
2015,04,28,16,15,14.20
2015,04,28,16,16,14.20
2015,04,28,16,17,14.20
2015,04,28,16,18,14.30
2015,04,28,16,19,14.30
2015,04,28,16,20,14.40
2015,04,28,16,21,14.50
2015,04,28,16,22,14.40
2015,04,28,16,23,14.40
2015,04,28,16,24,14.40
2015,04,28,16,25,14.50
2015,04,28,16,26,14.60
2015,04,28,16,27,14.60
2015,04,28,16,28,14.60
2015,04,28,16,29,14.70
2015,04,28,16,30,14.70
2015,04,28,16,31,14.70
2015,04,28,16,32,14.80
2015,04,28,16,33,14.80
2015,04,28,16,34,14.80
2015,04,28,16,35,14.80
2015,04,28,16,36,14.70
2015,04,28,16,37,14.70
2015,04,28,16,38,14.70
2015,04,28,16,39,14.80
2015,04,28,16,40,14.60
2015,04,28,16,41,14.50
2015,04,28,16,42,14.50
2015,04,28,16,43,14.50
2015,04,28,16,44,14.50
2015,04,28,16,45,14.50
2015,04,28,16,46,14.50
2015,04,28,16,47,14.60
2015,04,28,16,48,14.70
2015,04,28,16,49,14.70
2015,04,28,16,50,14.70
2015,04,28,16,51,14.80
2015,04,28,16,52,14.70
2015,04,28,16,53,14.60
2015,04,28,16,54,14.50
2015,04,28,16,55,14.50
2015,04,28,16,56,14.60
2015,04,28,16,57,14.50
2015,04,28,16,58,14.40
2015,04,28,16,59,14.30
2015,04,28,17,00,14.20
2015,04,28,17,01,14.20
2015,04,28,17,02,14.20
2015,04,28,17,03,14.20
2015,04,28,17,04,14.30
2015,04,28,17,05,14.40
2015,04,28,17,06,14.40
2015,04,28,17,07,14.40
2015,04,28,17,08,14.40
2015,04,28,17,09,14.50
2015,04,28,17,10,14.50
2015,04,28,17,11,14.40
2015,04,28,17,12,14.40
2015,04,28,17,13,14.30
2015,04,28,17,14,14.20
2015,04,28,17,15,14.10
2015,04,28,17,16,14.00
2015,04,28,17,17,14.00
2015,04,28,17,18,13.90
2015,04,28,17,19,13.90